Location: Chemnitz
(49.5500°N, 11.5830°E)
Time: 14:49:36
(UTC+02:00)

ISS - Pass Details

Date: 30 March 2017
Orbit: 399 x 409 km, 51.6° (Epoch: 30 March)

Event Time Altitude Azimuth Distance (km) Brightness Sun altitude
Rises 22:24:26 0° 264° (W) 2,314 0.6 -24.6°
Reaches altitude 10° 22:26:31 10° 268° (W) 1,458 -0.4 -24.8°
Enters shadow 22:28:01 24° 275° (W) 874 -1.7 -25.0°
